Weather History for KLOU - January, 2012

Change the Weather History Date:

Tuesday, January 3, 2012

  Actual Average Record
Temperature  
Mean Temperature 25 °F 35 °F  
Max Temperature 31 °F 43 °F 71 °F (1997)
Min Temperature 18 °F 27 °F 5 °F (1979)
Degree Days  
Heating Degree Days 40 30  
Month to date heating degree days 94 90  
Since 1 July heating degree days 1474 1754  
Cooling Degree Days 0 0  
Month to date cooling degree days 0 0  
Year to date cooling degree days 0 0  
Moisture  
Dew Point 8 °F    
Average Humidity 50    
Maximum Humidity 68    
Minimum Humidity 31    
Precipitation  
Precipitation 0.00 in 0.12 in 1.53 in (1951)
Month to date precipitation T 0.39  
Year to date precipitation T 0.39  
Sea Level Pressure  
Sea Level Pressure 30.41 in    
Wind  
Wind Speed 7 mph (West)    
Max Wind Speed 17 mph    
Max Gust Speed 23 mph    
Visibility 10 miles    
Events      
T = Trace of Precipitation, MM = Missing Value Source: NWS Daily Summary

Daily Weather History Graph

Daily Weather History Graph

Search for Another Location

Airport or City:

Trip Planner

Search our weather history database for the weather conditions in past years. The results will help you decide how hot, cold, wet, or windy it might be!

Date:

Astronomy

Jan. 03, 2012 Rise Set
Actual Time 7:59 AM EST 5:34 PM EST
Civil Twilight 7:30 AM EST 6:04 PM EST
Nautical Twilight 6:57 AM EST 6:37 PM EST
Astronomical Twilight 6:25 AM EST 7:09 PM EST
Moon 1:20 PM EST (1/3) 2:51 AM EST (1/3)
Length of Visible Light 10h 33m
Length of Day
9h 35m
Waxing Gibbous, 72% of the Moon is Illuminated
Jan 3
Waxing Gibbous
Jan 9
Full
Jan 16
Last Quarter
Jan 23
New
Jan 30
First Quarter

Hourly Weather History & Observations

Time (EST) Temp. Windchill Dew Point Humidity Pressure Visibility Wind Dir Wind Speed Gust Speed Precip Events Conditions
12:53 AM 21.9 °F 9.2 °F 10.9 °F 63% 30.38 in 10.0 mi NW 13.8 mph - N/A   Overcast
1:53 AM 21.9 °F 9.2 °F 9.0 °F 58% 30.40 in 10.0 mi WNW 13.8 mph - N/A   Overcast
2:53 AM 21.0 °F 9.9 °F 10.0 °F 63% 30.41 in 10.0 mi NW 10.4 mph - N/A   Clear
3:53 AM 19.9 °F 9.3 °F 10.0 °F 65% 30.43 in 10.0 mi NW 9.2 mph - N/A   Clear
4:53 AM 19.9 °F 10.1 °F 10.0 °F 65% 30.43 in 10.0 mi WNW 8.1 mph - N/A   Clear
5:53 AM 19.9 °F 11.1 °F 10.9 °F 68% 30.44 in 10.0 mi WNW 6.9 mph - N/A   Clear
6:53 AM 19.9 °F 12.1 °F 10.0 °F 65% 30.44 in 10.0 mi WNW 5.8 mph - N/A   Clear
7:53 AM 18.0 °F 11.1 °F 9.0 °F 68% 30.45 in 10.0 mi West 4.6 mph - N/A   Clear
8:53 AM 19.4 °F 9.5 °F 10.4 °F 68% 30.45 in 10.0 mi West 8.1 mph - N/A   Clear
9:53 AM 21.9 °F 11.7 °F 10.0 °F 60% 30.50 in 10.0 mi West 9.2 mph - N/A   Clear
10:53 AM 24.1 °F 17.0 °F 10.9 °F 57% 30.51 in 10.0 mi WSW 5.8 mph - N/A   Clear
11:53 AM 26.1 °F 19.4 °F 10.0 °F 51% 30.48 in 10.0 mi West 5.8 mph - N/A   Clear
12:53 PM 28.0 °F 17.0 °F 7.0 °F 41% 30.46 in 10.0 mi NW 13.8 mph - N/A   Clear
1:53 PM 28.9 °F 21.1 °F 5.0 °F 36% 30.43 in 10.0 mi West 8.1 mph 16.1 mph N/A   Clear
2:53 PM 30.9 °F 22.2 °F 5.0 °F 33% 30.41 in 10.0 mi WNW 10.4 mph - N/A   Clear
3:53 PM 30.9 °F 23.5 °F 5.0 °F 33% 30.40 in 10.0 mi West 8.1 mph - N/A   Clear
4:53 PM 30.0 °F 23.2 °F 3.9 °F 33% 30.40 in 10.0 mi WSW 6.9 mph - N/A   Clear
5:53 PM 28.0 °F 22.8 °F 5.0 °F 38% 30.41 in 10.0 mi WSW 4.6 mph - N/A   Clear
6:53 PM 28.0 °F - 5.0 °F 38% 30.39 in 10.0 mi Calm Calm - N/A   Clear
7:53 PM 28.0 °F - 7.0 °F 41% 30.38 in 10.0 mi Calm Calm - N/A   Clear
8:53 PM 27.0 °F - 8.1 °F 45% 30.35 in 10.0 mi Calm Calm - N/A   Clear
9:53 PM 26.1 °F - 9.0 °F 49% 30.34 in 10.0 mi Calm Calm - N/A   Clear
10:53 PM 25.0 °F 19.3 °F 9.0 °F 51% 30.32 in 10.0 mi South 4.6 mph - N/A   Clear
11:53 PM 25.0 °F 20.7 °F 10.0 °F 53% 30.30 in 10.0 mi South 3.5 mph - N/A   Clear